Showing default

SHIJIAN 6 05A (SJ-6 05A), 49961

Orbit data source: Space-Track

SHIJIAN 6 05A (SJ-6 05A), 49961 is a payload satellite owned by CASC (CN) in SSO that was launched on Fri, 10 Dec 2021 UTC via a CHANG ZHENG 4B launch vehicle from the Jiuquan Satellite Launch Center, China (JSC). Payload-class satellites include a variety of spacecraft equipped with specific instruments for various scientific and technological missions. These include communications satellites like Starlink; space stations such as the ISS; scientific satellites like the Hubble; Earth observation satellites from companies like Planet Labs, Umbra, and HawkEye 360; GPS; miniature CubeSats for education and research; and military/defense satellites.

Loading next visibility...
Identifier
49961, 2021-122A
Orbit
SSO
Country
Flag of CNCN / PRC
Related business
Manufacturer
SAST
Mission
Operational Defense Sigint
Bus & Motor
FY-1?, Unknown motor
Mass
~1,000 kg wet, ~1,000 kg dry
Launch date (UTC)
2021-12-10 (4 years ago)
Launch vehicle
CHANG ZHENG 4B
Launch site
Jiuquan Satellite Launch Center, China (JSC)
Object type
Payload
Rocket body
Debris
Shape & HBR
Box + 2 Pan, 4.3 m
Radar Cross Section
5.659 m², Large (>1 m²)

Expand to show TLE details & history
Last TLE update: 17 hours ago

TLE from 17 hours ago
0 SHIJIAN 6 05A (SJ-6 05A)
1 49961U 21122A   25352.83605294  .00001082  00000-0  94796-4 0  9991
2 49961  97.3868 325.4840 0001850  55.1731 304.9666 14.98586281221735
Epoch: 2025-12-18T20:03Z
TLE epoch observation values (Epoch: 2025-12-18T20:03:54.974Z)
Latitude
-0.00003°
Longitude
-63.1809°
Altitude
573.588 km
Speed
7.574 km/s
True Right ascension
21h 41m 56s
True Declination
0° 00' 00"
Sunlit
Object was in daylight at epoch
Visualization orbit readout
Latitude
Unknown
Longitude
Unknown
Altitude
Unknown
Speed
Unknown
Apparent Right ascension
Unknown
Apparent Declination
Unknown
Sunlit
N/A
Visualization observer readout
Local Sidereal Time
11:58:43
Azimuth
Unknown
Elevation
Unknown
Doppler factor
Unknown
Orbital elements
Apogee altitude
569.542 km
Perigee altitude
566.972 km
Semi-major axis
6,946.394 km
Eccentricity
0.00019
Inclination
97.3868°
RAAN
325.484°
Arg. of periapsis
55.1731°
True anomaly
304.94923°
Mean anomaly
304.9666°
Eccentric anomaly
304.95791°
Mean motion
3.7489 °/min
Orbital period
96.03 mins
BSTAR
0.000094796
Loading maneuver chart data...
Computing Atmospheric mass density...
Loading historical data...
Loading historical data...
Loading historical data...
Loading historical data...
Loading historical data...
Loading historical data...
Loading historical data...

Documentation

Showing up to 5 results
|